Lexington, NE

9:05 AM CDT on April 21, 2018 (GMT -0500)
Kelly

Weather History for KLXN - December, 2013

Change the Weather History Date:

Thursday, December 5, 2013

  Actual Average Record
Temperature  
Mean Temperature 10 °F -  
Max Temperature 16 °F 42 °F 61 °F (2012)
Min Temperature 3 °F 19 °F -5 °F (2005)
Degree Days  
Heating Degree Days 56    
Moisture  
Dew Point -6 °F    
Average Humidity 54    
Maximum Humidity 70    
Minimum Humidity 34    
Precipitation  
Precipitation 0.00 in - - ()
Sea Level Pressure  
Sea Level Pressure 30.25 in    
Wind  
Wind Speed 13 mph (NNW)    
Max Wind Speed 22 mph    
Max Gust Speed 29 mph    
Visibility 10 miles    
Events      
Averages and records for this station are not official NWS values.
T = Trace of Precipitation, MM = Missing Value Source: NWS Daily Summary

Daily Weather History Graph

Daily Weather History Graph

Search for Another Location

Airport or City:

Astronomy

Dec. 05, 2013 Rise Set
Actual Time 7:48 AM CST 5:11 PM CST
Civil Twilight 7:17 AM CST 5:42 PM CST
Nautical Twilight 6:43 AM CST 6:16 PM CST
Astronomical Twilight 6:10 AM CST 6:49 PM CST
Moon 10:09 AM CST (12/5) 8:34 PM CST (12/5)
Length of Visible Light 10h 24m
Length of Day
9h 23m
Waxing Crescent, 11% of the Moon is Illuminated
Dec 5
Waxing Crescent
Dec 9
First Quarter
Dec 17
Full
Dec 25
Last Quarter
Jan 1
New

Hourly Weather History & Observations

Time (CST) Temp. Windchill Dew Point Humidity Pressure Visibility Wind Dir Wind Speed Gust Speed Precip Events Conditions
12:15 AM 9.5 °F -10.3 °F -2.7 °F 58% 30.14 in 10.0 mi NNW 21.9 mph 27.6 mph N/A   Scattered Clouds
12:35 AM 8.6 °F -11.0 °F -3.1 °F 59% 30.14 in 10.0 mi NW 20.7 mph 28.8 mph N/A   Clear
12:55 AM 8.2 °F -11.0 °F -3.1 °F 60% 30.14 in 10.0 mi NW 19.6 mph 26.5 mph N/A   Clear
1:15 AM 8.1 °F -10.7 °F -3.3 °F 60% 30.15 in 10.0 mi NW 18.4 mph 24.2 mph N/A   Clear
1:35 AM 8.2 °F -8.2 °F -3.6 °F 58% 30.16 in 10.0 mi NNW 13.8 mph - N/A   Clear
1:55 AM 7.7 °F -9.5 °F -3.6 °F 60% 30.16 in 10.0 mi NW 15.0 mph - N/A   Clear
2:15 AM 6.8 °F -7.8 °F -3.8 °F 62% 30.18 in 10.0 mi NW 10.4 mph - N/A   Clear
2:35 AM 6.8 °F -7.8 °F -3.6 °F 62% 30.19 in 10.0 mi NW 10.4 mph - N/A   Clear
2:55 AM 5.9 °F -4.5 °F -3.6 °F 65% 30.19 in 10.0 mi WNW 5.8 mph - N/A   Clear
3:15 AM 5.4 °F -8.6 °F -3.5 °F 67% 30.20 in 10.0 mi NW 9.2 mph - N/A   Clear
3:35 AM 4.8 °F -9.3 °F -3.5 °F 69% 30.19 in 10.0 mi NW 9.2 mph - N/A   Clear
3:55 AM 5.4 °F -11.1 °F -4.0 °F 65% 30.20 in 10.0 mi NW 12.7 mph - N/A   Clear
4:15 AM 5.4 °F -10.4 °F -4.0 °F 65% 30.20 in 10.0 mi NW 11.5 mph - N/A   Clear
4:35 AM 4.8 °F -11.1 °F -4.2 °F 66% 30.20 in 10.0 mi NNW 11.5 mph - N/A   Clear
4:55 AM 4.8 °F -11.8 °F -4.2 °F 66% 30.20 in 10.0 mi NW 12.7 mph - N/A   Clear
5:15 AM 4.6 °F -10.4 °F -4.2 °F 67% 30.21 in 10.0 mi NW 10.4 mph - N/A   Clear
5:35 AM 4.1 °F -10.2 °F -4.5 °F 67% 30.21 in 10.0 mi NW 9.2 mph - N/A   Clear
5:55 AM 3.9 °F -12.2 °F -4.5 °F 68% 30.20 in 10.0 mi NW 11.5 mph - N/A   Clear
6:15 AM 3.6 °F -10.9 °F -4.9 °F 68% 30.20 in 10.0 mi NW 9.2 mph - N/A   Clear
6:35 AM 3.0 °F -11.5 °F -4.9 °F 70% 30.21 in 10.0 mi NW 9.2 mph - N/A   Clear
6:55 AM 3.0 °F -12.5 °F -4.9 °F 70% 30.22 in 10.0 mi NW 10.4 mph - N/A   Clear
7:15 AM 3.0 °F -11.5 °F -4.9 °F 70% 30.21 in 10.0 mi NNW 9.2 mph - N/A   Clear
7:35 AM 3.0 °F -12.5 °F -5.1 °F 69% 30.22 in 10.0 mi NW 10.4 mph - N/A   Clear
7:55 AM 3.2 °F -11.3 °F -5.3 °F 68% 30.23 in 10.0 mi NW 9.2 mph - N/A   Clear
8:15 AM 3.2 °F -10.3 °F -5.3 °F 68% 30.24 in 10.0 mi WNW 8.1 mph - N/A   Clear
8:35 AM 3.4 °F -10.0 °F -4.9 °F 68% 30.25 in 10.0 mi West 8.1 mph - N/A   Clear
8:55 AM 3.7 °F -11.6 °F -4.7 °F 68% 30.25 in 10.0 mi WNW 10.4 mph - N/A   Clear
9:15 AM 5.0 °F -10.0 °F -5.1 °F 63% 30.27 in 10.0 mi WNW 10.4 mph - N/A   Clear
9:35 AM 5.9 °F -9.7 °F -5.4 °F 60% 30.27 in 10.0 mi NW 11.5 mph - N/A   Clear
9:55 AM 7.5 °F -6.9 °F -4.9 °F 57% 30.27 in 10.0 mi NNW 10.4 mph 17.3 mph N/A   Clear
10:15 AM 9.3 °F -6.8 °F -6.0 °F 50% 30.29 in 10.0 mi NNW 13.8 mph 19.6 mph N/A   Clear
10:35 AM 10.0 °F -8.1 °F -6.7 °F 47% 30.28 in 10.0 mi NNW 18.4 mph - N/A   Clear
10:55 AM 11.5 °F -5.2 °F -6.2 °F 45% 30.28 in 10.0 mi NNW 16.1 mph 21.9 mph N/A   Clear
11:15 AM 11.7 °F -6.0 °F -7.1 °F 43% 30.28 in 10.0 mi North 18.4 mph 25.3 mph N/A   Clear
11:35 AM 12.9 °F -4.4 °F -6.5 °F 42% 30.27 in 10.0 mi North 18.4 mph 21.9 mph N/A   Clear
11:55 AM 13.8 °F -3.7 °F -7.1 °F 39% 30.26 in 10.0 mi North 19.6 mph 23.0 mph N/A   Clear
12:15 PM 13.8 °F -0.5 °F -7.2 °F 39% 30.25 in 10.0 mi North 12.7 mph - N/A   Clear
12:35 PM 13.8 °F -1.1 °F -7.1 °F 39% 30.24 in 10.0 mi North 13.8 mph 17.3 mph N/A   Clear
12:55 PM 14.2 °F -1.7 °F -7.6 °F 38% 30.24 in 10.0 mi NNW 16.1 mph - N/A   Clear
1:15 PM 14.9 °F 0.3 °F -7.4 °F 37% 30.22 in 10.0 mi North 13.8 mph - N/A   Clear
1:35 PM 14.9 °F 1.6 °F -7.2 °F 37% 30.22 in 10.0 mi North 11.5 mph 20.7 mph N/A   Clear
1:55 PM 16.2 °F 3.9 °F -7.1 °F 35% 30.22 in 10.0 mi North 10.4 mph - N/A   Clear
2:15 PM 16.3 °F 2.7 °F -6.9 °F 35% 30.21 in 10.0 mi NNE 12.7 mph - N/A   Clear
2:35 PM 16.5 °F 2.4 °F -7.4 °F 34% 30.21 in 10.0 mi NNW 13.8 mph - N/A   Clear
2:55 PM 16.7 °F 2.6 °F -7.1 °F 35% 30.21 in 10.0 mi North 13.8 mph - N/A   Clear
3:15 PM 16.3 °F 2.1 °F -7.6 °F 34% 30.21 in 10.0 mi North 13.8 mph 20.7 mph N/A   Clear
3:35 PM 15.8 °F 2.7 °F -7.8 °F 35% 30.22 in 10.0 mi NNE 11.5 mph - N/A   Clear
3:55 PM 15.3 °F 0.2 °F -7.8 °F 36% 30.23 in 10.0 mi NNE 15.0 mph - N/A   Clear
4:15 PM 14.7 °F 0.1 °F -7.8 °F 36% 30.24 in 10.0 mi NNE 13.8 mph - N/A   Clear
4:40 PM 13.1 °F 0.9 °F -8.0 °F 39% 30.26 in 10.0 mi North 9.2 mph - N/A   Clear
4:55 PM 11.8 °F -0.7 °F -8.0 °F 41% 30.27 in 10.0 mi NNE 9.2 mph - N/A   Clear
5:15 PM 10.4 °F -1.5 °F -7.4 °F 45% 30.26 in 10.0 mi NNE 8.1 mph - N/A   Clear
5:35 PM 7.9 °F -2.2 °F -6.3 °F 52% 30.27 in 10.0 mi North 5.8 mph - N/A   Clear
5:55 PM 7.7 °F -0.9 °F -6.2 °F 53% 30.29 in 10.0 mi North 4.6 mph - N/A   Clear
6:15 PM 6.8 °F -4.8 °F -5.3 °F 58% 30.28 in 10.0 mi North 6.9 mph - N/A   Scattered Clouds
6:35 PM 8.1 °F -4.3 °F -6.2 °F 52% 30.28 in 10.0 mi NNE 8.1 mph - N/A   Mostly Cloudy
6:55 PM 9.1 °F -4.0 °F -6.2 °F 50% 30.28 in 10.0 mi NNE 9.2 mph - N/A   Mostly Cloudy
7:15 PM 9.5 °F -5.9 °F -6.2 °F 49% 30.28 in 10.0 mi NNE 12.7 mph - N/A   Overcast
7:35 PM 9.5 °F -6.6 °F -6.2 °F 49% 30.28 in 10.0 mi NNE 13.8 mph - N/A   Overcast
7:55 PM 9.0 °F -7.3 °F -6.7 °F 49% 30.28 in 10.0 mi NNE 13.8 mph - N/A   Overcast
8:15 PM 8.6 °F -6.3 °F -6.7 °F 50% 30.30 in 10.0 mi NNE 11.5 mph - N/A   Overcast
8:35 PM 8.4 °F -4.9 °F -7.4 °F 49% 30.30 in 10.0 mi NNE 9.2 mph - N/A   Overcast
8:55 PM 8.1 °F -7.7 °F -7.6 °F 49% 30.31 in 10.0 mi NNE 12.7 mph - N/A   Overcast
9:15 PM 7.7 °F -4.8 °F -7.4 °F 50% 30.31 in 10.0 mi NNE 8.1 mph - N/A   Overcast
9:35 PM 7.2 °F -4.3 °F -7.6 °F 51% 30.32 in 10.0 mi NNE 6.9 mph - N/A   Overcast
9:55 PM 6.8 °F -8.6 °F -7.6 °F 52% 30.33 in 10.0 mi NNE 11.5 mph - N/A   Overcast
10:15 PM 6.8 °F -4.8 °F -6.7 °F 54% 30.33 in 10.0 mi NNE 6.9 mph - N/A   Overcast
10:35 PM 6.8 °F -4.8 °F -6.5 °F 55% 30.34 in 10.0 mi NNE 6.9 mph - N/A   Overcast
10:55 PM 6.8 °F -3.5 °F -6.0 °F 56% 30.35 in 10.0 mi North 5.8 mph - N/A   Overcast
11:15 PM 6.1 °F -2.8 °F -5.4 °F 59% 30.36 in 10.0 mi NNW 4.6 mph - N/A   Overcast
11:35 PM 5.2 °F -6.7 °F -5.8 °F 61% 30.36 in 10.0 mi North 6.9 mph - N/A   Mostly Cloudy
11:55 PM 3.4 °F -8.9 °F -5.8 °F 66% 30.36 in 10.0 mi NNW 6.9 mph - N/A   Scattered Clouds